Year,Month,Day,Hour,Minute,Value (Times are PST for temperature in C)
2014,06,23,00,00,19.10
2014,06,23,00,01,19.10
2014,06,23,00,02,19.20
2014,06,23,00,03,19.20
2014,06,23,00,04,19.20
2014,06,23,00,05,19.20
2014,06,23,00,06,19.20
2014,06,23,00,07,19.20
2014,06,23,00,08,19.20
2014,06,23,00,09,19.20
2014,06,23,00,10,19.30
2014,06,23,00,11,19.30
2014,06,23,00,12,19.30
2014,06,23,00,13,19.30
2014,06,23,00,14,19.30
2014,06,23,00,15,19.30
2014,06,23,00,16,19.30
2014,06,23,00,17,19.30
2014,06,23,00,18,19.30
2014,06,23,00,19,19.30
2014,06,23,00,20,19.20
2014,06,23,00,21,19.20
2014,06,23,00,22,19.10
2014,06,23,00,23,19.00
2014,06,23,00,24,18.90
2014,06,23,00,25,18.80
2014,06,23,00,26,18.70
2014,06,23,00,27,18.50
2014,06,23,00,28,18.40
2014,06,23,00,29,18.30
2014,06,23,00,30,18.20
2014,06,23,00,31,18.20
2014,06,23,00,32,18.10
2014,06,23,00,33,18.10
2014,06,23,00,34,18.10
2014,06,23,00,35,18.00
2014,06,23,00,36,18.00
2014,06,23,00,37,17.90
2014,06,23,00,38,17.90
2014,06,23,00,39,17.90
2014,06,23,00,40,17.80
2014,06,23,00,41,17.80
2014,06,23,00,42,17.80
2014,06,23,00,43,17.80
2014,06,23,00,44,17.70
2014,06,23,00,45,17.70
2014,06,23,00,46,17.60
2014,06,23,00,47,17.60
2014,06,23,00,48,17.60
2014,06,23,00,49,17.60
2014,06,23,00,50,17.50
2014,06,23,00,51,17.50
2014,06,23,00,52,17.40
2014,06,23,00,53,17.40
2014,06,23,00,54,17.30
2014,06,23,00,55,17.30
2014,06,23,00,56,17.20
2014,06,23,00,57,17.20
2014,06,23,00,58,17.10
2014,06,23,00,59,17.10
2014,06,23,01,00,17.10
2014,06,23,01,01,17.00
2014,06,23,01,02,17.00
2014,06,23,01,03,16.90
2014,06,23,01,04,16.90
2014,06,23,01,05,16.90
2014,06,23,01,06,16.80
2014,06,23,01,07,16.80
2014,06,23,01,08,16.80
2014,06,23,01,09,16.80
2014,06,23,01,10,16.80
2014,06,23,01,11,16.80
2014,06,23,01,12,16.80
2014,06,23,01,13,16.80
2014,06,23,01,14,16.80
2014,06,23,01,15,16.70
2014,06,23,01,16,16.70
2014,06,23,01,17,16.70
2014,06,23,01,18,16.60
2014,06,23,01,19,16.60
2014,06,23,01,20,16.60
2014,06,23,01,21,16.60
2014,06,23,01,22,16.60
2014,06,23,01,23,16.50
2014,06,23,01,24,16.50
2014,06,23,01,25,16.50
2014,06,23,01,26,16.60
2014,06,23,01,27,16.60
2014,06,23,01,28,16.60
2014,06,23,01,29,16.60
2014,06,23,01,30,16.60
2014,06,23,01,31,16.50
2014,06,23,01,32,16.50
2014,06,23,01,33,16.40
2014,06,23,01,34,16.40
2014,06,23,01,35,16.30
2014,06,23,01,36,16.30
2014,06,23,01,37,16.20
2014,06,23,01,38,16.20
2014,06,23,01,39,16.10
2014,06,23,01,40,16.10
2014,06,23,01,41,16.00
2014,06,23,01,42,16.00
2014,06,23,01,43,16.00
2014,06,23,01,44,16.00
2014,06,23,01,45,16.00
2014,06,23,01,46,15.90
2014,06,23,01,47,16.00
2014,06,23,01,48,16.00
2014,06,23,01,49,16.00
2014,06,23,01,50,16.00
2014,06,23,01,51,16.00
2014,06,23,01,52,16.00
2014,06,23,01,53,16.00
2014,06,23,01,54,16.00
2014,06,23,01,55,16.00
2014,06,23,01,56,16.00
2014,06,23,01,57,15.90
2014,06,23,01,58,15.90
2014,06,23,01,59,15.90
2014,06,23,02,00,15.90
2014,06,23,02,01,15.90
2014,06,23,02,02,15.80
2014,06,23,02,03,15.80
2014,06,23,02,04,15.80
2014,06,23,02,05,15.80
2014,06,23,02,06,15.70
2014,06,23,02,07,15.70
2014,06,23,02,08,15.70
2014,06,23,02,09,15.60
2014,06,23,02,10,15.60
2014,06,23,02,11,15.60
2014,06,23,02,12,15.60
2014,06,23,02,13,15.60
2014,06,23,02,14,15.50
2014,06,23,02,15,15.50
2014,06,23,02,16,15.50
2014,06,23,02,17,15.40
2014,06,23,02,18,15.40
2014,06,23,02,19,15.40
2014,06,23,02,20,15.40
2014,06,23,02,21,15.40
2014,06,23,02,22,15.40
2014,06,23,02,23,15.30
2014,06,23,02,24,15.30
2014,06,23,02,25,15.30
2014,06,23,02,26,15.30
2014,06,23,02,27,15.30
2014,06,23,02,28,15.40
2014,06,23,02,29,15.40
2014,06,23,02,30,15.40
2014,06,23,02,31,15.50
2014,06,23,02,32,15.50
2014,06,23,02,33,15.60
2014,06,23,02,34,15.60
2014,06,23,02,35,15.60
2014,06,23,02,36,15.60
2014,06,23,02,37,15.60
2014,06,23,02,38,15.60
2014,06,23,02,39,15.60
2014,06,23,02,40,15.60
2014,06,23,02,41,15.50
2014,06,23,02,42,15.50
2014,06,23,02,43,15.40
2014,06,23,02,44,15.40
2014,06,23,02,45,15.30
2014,06,23,02,46,15.30
2014,06,23,02,47,15.30
2014,06,23,02,48,15.20
2014,06,23,02,49,15.10
2014,06,23,02,50,15.10
2014,06,23,02,51,15.00
2014,06,23,02,52,15.00
2014,06,23,02,53,15.00
2014,06,23,02,54,15.00
2014,06,23,02,55,15.00
2014,06,23,02,56,15.00
2014,06,23,02,57,14.90
2014,06,23,02,58,14.90
2014,06,23,02,59,14.90
2014,06,23,03,00,14.80
2014,06,23,03,01,14.80
2014,06,23,03,02,14.80
2014,06,23,03,03,14.80
2014,06,23,03,06,15.00
2014,06,23,03,07,15.00
2014,06,23,03,08,15.00
2014,06,23,03,09,15.00
2014,06,23,03,10,15.00
2014,06,23,03,11,15.00
2014,06,23,03,12,15.00
2014,06,23,03,13,15.00
2014,06,23,03,14,15.00
2014,06,23,03,15,15.00
2014,06,23,03,16,15.00
2014,06,23,03,17,15.00
2014,06,23,03,18,15.00
2014,06,23,03,19,15.00
2014,06,23,03,20,15.00
2014,06,23,03,21,15.00
2014,06,23,03,22,15.00
2014,06,23,03,23,15.00
2014,06,23,03,24,15.00
2014,06,23,03,25,15.00
2014,06,23,03,26,15.00
2014,06,23,03,27,15.00
2014,06,23,03,28,15.00
2014,06,23,03,29,15.00
2014,06,23,03,30,15.00
2014,06,23,03,31,14.90
2014,06,23,03,32,14.80
2014,06,23,03,33,14.80
2014,06,23,03,34,14.80
2014,06,23,03,35,14.80
2014,06,23,03,36,14.70
2014,06,23,03,37,14.70
2014,06,23,03,38,14.70
2014,06,23,03,39,14.60
2014,06,23,03,40,14.60
2014,06,23,03,41,14.60
2014,06,23,03,42,14.60
2014,06,23,03,43,14.60
2014,06,23,03,44,14.60
2014,06,23,03,45,14.60
2014,06,23,03,46,14.60
2014,06,23,03,47,14.60
2014,06,23,03,48,14.60
2014,06,23,03,49,14.50
2014,06,23,03,50,14.50
2014,06,23,03,51,14.50
2014,06,23,03,52,14.50
2014,06,23,03,53,14.40
2014,06,23,03,54,14.40
2014,06,23,03,55,14.40
2014,06,23,03,56,14.30
2014,06,23,03,57,14.30
2014,06,23,03,58,14.20
2014,06,23,03,59,14.20
2014,06,23,04,00,14.20
2014,06,23,04,01,14.30
2014,06,23,04,02,14.30
2014,06,23,04,03,14.30
2014,06,23,04,04,14.30
2014,06,23,04,05,14.30
2014,06,23,04,06,14.40
2014,06,23,04,07,14.40
2014,06,23,04,08,14.40
2014,06,23,04,09,14.40
2014,06,23,04,10,14.40
2014,06,23,04,11,14.30
2014,06,23,04,12,14.30
2014,06,23,04,13,14.30
2014,06,23,04,14,14.30
2014,06,23,04,15,14.20
2014,06,23,04,16,14.20
2014,06,23,04,17,14.10
2014,06,23,04,18,14.10
2014,06,23,04,19,14.10
2014,06,23,04,20,14.10
2014,06,23,04,21,14.10
2014,06,23,04,22,14.10
2014,06,23,04,23,14.10
2014,06,23,04,24,14.20
2014,06,23,04,25,14.20
2014,06,23,04,26,14.20
2014,06,23,04,27,14.20
2014,06,23,04,28,14.20
2014,06,23,04,29,14.30
2014,06,23,04,30,14.30
2014,06,23,04,31,14.30
2014,06,23,04,32,14.30
2014,06,23,04,33,14.20
2014,06,23,04,34,14.20
2014,06,23,04,35,14.20
2014,06,23,04,36,14.30
2014,06,23,04,37,14.30
2014,06,23,04,38,14.30
2014,06,23,04,39,14.30
2014,06,23,04,40,14.30
2014,06,23,04,41,14.30
2014,06,23,04,42,14.30
2014,06,23,04,43,14.30
2014,06,23,04,44,14.30
2014,06,23,04,45,14.40
2014,06,23,04,46,14.40
2014,06,23,04,47,14.40
2014,06,23,04,48,14.40
2014,06,23,04,49,14.40
2014,06,23,04,50,14.50
2014,06,23,04,51,14.50
2014,06,23,04,52,14.50
2014,06,23,04,53,14.60
2014,06,23,04,54,14.60
2014,06,23,04,55,14.60
2014,06,23,04,56,14.70
2014,06,23,04,57,14.70
2014,06,23,04,58,14.70
2014,06,23,04,59,14.70
2014,06,23,05,00,14.80
2014,06,23,05,01,14.80
2014,06,23,05,02,14.80
2014,06,23,05,03,14.80
2014,06,23,05,04,14.90
2014,06,23,05,05,14.90
2014,06,23,05,06,14.90
2014,06,23,05,07,14.90
2014,06,23,05,08,15.00
2014,06,23,05,09,15.00
2014,06,23,05,10,15.00
2014,06,23,05,11,15.00
2014,06,23,05,12,15.00
2014,06,23,05,13,15.00
2014,06,23,05,14,15.00
2014,06,23,05,15,15.00
2014,06,23,05,16,15.00
2014,06,23,05,17,15.00
2014,06,23,05,18,15.00
2014,06,23,05,19,15.00
2014,06,23,05,20,15.00
2014,06,23,05,21,15.00
2014,06,23,05,22,15.00
2014,06,23,05,23,15.00
2014,06,23,05,24,15.00
2014,06,23,05,25,15.00
2014,06,23,05,26,15.00
2014,06,23,05,27,15.00
2014,06,23,05,28,15.00
2014,06,23,05,29,15.00
2014,06,23,05,30,15.00
2014,06,23,05,31,15.00
2014,06,23,05,32,15.00
2014,06,23,05,33,15.00
2014,06,23,05,34,15.10
2014,06,23,05,35,15.20
2014,06,23,05,36,15.30
2014,06,23,05,37,15.40
2014,06,23,05,38,15.40
2014,06,23,05,39,15.50
2014,06,23,05,40,15.60
2014,06,23,05,41,15.60
2014,06,23,05,42,15.70
2014,06,23,05,43,15.80
2014,06,23,05,44,15.80
2014,06,23,05,45,15.80
2014,06,23,05,46,15.80
2014,06,23,05,47,15.90
2014,06,23,05,48,15.90
2014,06,23,05,49,15.90
2014,06,23,05,50,15.90
2014,06,23,05,51,15.90
2014,06,23,05,52,15.90
2014,06,23,05,53,15.90
2014,06,23,05,54,15.90
2014,06,23,05,55,15.90
2014,06,23,05,56,15.90
2014,06,23,05,57,15.90
2014,06,23,05,58,15.90
2014,06,23,05,59,15.90
2014,06,23,06,00,15.90
2014,06,23,06,01,15.90
2014,06,23,06,02,15.90
2014,06,23,06,03,15.80
2014,06,23,06,04,15.80
2014,06,23,06,05,15.80
2014,06,23,06,06,15.80
2014,06,23,06,07,15.80
2014,06,23,06,08,15.80
2014,06,23,06,09,15.80
2014,06,23,06,10,15.80
2014,06,23,06,11,15.80
2014,06,23,06,12,15.80
2014,06,23,06,13,15.80
2014,06,23,06,14,15.80
2014,06,23,06,15,15.80
2014,06,23,06,16,15.80
2014,06,23,06,17,15.80
2014,06,23,06,18,15.80
2014,06,23,06,19,15.80
2014,06,23,06,20,15.80
2014,06,23,06,21,15.80
2014,06,23,06,22,15.80
2014,06,23,06,23,15.80
2014,06,23,06,24,15.80
2014,06,23,06,25,15.80
2014,06,23,06,26,15.80
2014,06,23,06,27,15.80
2014,06,23,06,28,15.80
2014,06,23,06,29,15.80
2014,06,23,06,30,15.80
2014,06,23,06,31,15.80
2014,06,23,06,32,15.80
2014,06,23,06,33,15.80
2014,06,23,06,34,15.80
2014,06,23,06,35,15.80
2014,06,23,06,36,15.80
2014,06,23,06,37,15.80
2014,06,23,06,38,15.80
2014,06,23,06,39,15.80
2014,06,23,06,40,15.80
2014,06,23,06,41,15.80
2014,06,23,06,42,15.90
2014,06,23,06,43,15.90
2014,06,23,06,44,15.90
2014,06,23,06,45,15.90
2014,06,23,06,46,15.90
2014,06,23,06,47,15.90
2014,06,23,06,48,15.90
2014,06,23,06,49,15.90
2014,06,23,06,50,15.90
2014,06,23,06,51,15.90
2014,06,23,06,52,15.90
2014,06,23,06,53,16.00
2014,06,23,06,54,16.00
2014,06,23,06,55,16.00
2014,06,23,06,56,16.00
2014,06,23,06,57,16.00
2014,06,23,06,58,16.10
2014,06,23,06,59,16.10
2014,06,23,07,00,16.10
2014,06,23,07,01,16.10
2014,06,23,07,02,16.10
2014,06,23,07,03,16.10
2014,06,23,07,04,16.10
2014,06,23,07,05,16.10
2014,06,23,07,06,16.10
2014,06,23,07,07,16.20
2014,06,23,07,08,16.20
2014,06,23,07,09,16.20
2014,06,23,07,10,16.30
2014,06,23,07,11,16.30
2014,06,23,07,12,16.40
2014,06,23,07,13,16.40
2014,06,23,07,14,16.50
2014,06,23,07,15,16.60
2014,06,23,07,16,16.60
2014,06,23,07,17,16.70
2014,06,23,07,18,16.80
2014,06,23,07,19,16.80
2014,06,23,07,20,16.90
2014,06,23,07,21,17.00
2014,06,23,07,22,17.00
2014,06,23,07,23,17.10
2014,06,23,07,24,17.20
2014,06,23,07,25,17.20
2014,06,23,07,26,17.30
2014,06,23,07,27,17.40
2014,06,23,07,28,17.40
2014,06,23,07,29,17.50
2014,06,23,07,30,17.60
2014,06,23,07,31,17.60
2014,06,23,07,32,17.70
2014,06,23,07,33,17.70
2014,06,23,07,34,17.80
2014,06,23,07,35,17.90
2014,06,23,07,36,17.90
2014,06,23,07,37,18.00
2014,06,23,07,38,18.00
2014,06,23,07,39,18.10
2014,06,23,07,40,18.10
2014,06,23,07,41,18.20
2014,06,23,07,42,18.20
2014,06,23,07,43,18.30
2014,06,23,07,44,18.30
2014,06,23,07,45,18.30
2014,06,23,07,46,18.30
2014,06,23,07,47,18.30
2014,06,23,07,48,18.30
2014,06,23,07,49,18.20
2014,06,23,07,50,18.20
2014,06,23,07,51,18.20
2014,06,23,07,52,18.20
2014,06,23,07,53,18.10
2014,06,23,07,54,18.10
2014,06,23,07,55,18.10
2014,06,23,07,56,18.10
2014,06,23,07,57,18.10
2014,06,23,07,58,18.10
2014,06,23,07,59,18.10
2014,06,23,08,00,18.10
2014,06,23,08,01,18.10
2014,06,23,08,02,18.10
2014,06,23,08,03,18.10
2014,06,23,08,04,18.20
2014,06,23,08,05,18.20
2014,06,23,08,06,18.20
2014,06,23,08,07,18.20
2014,06,23,08,08,18.20
2014,06,23,08,09,18.20
2014,06,23,08,10,18.20
2014,06,23,08,11,18.10
2014,06,23,08,12,18.10
2014,06,23,08,13,18.10
2014,06,23,08,14,18.00
2014,06,23,08,15,18.00
2014,06,23,08,16,18.00
2014,06,23,08,17,18.00
2014,06,23,08,18,18.00
2014,06,23,08,19,18.00
2014,06,23,08,20,18.10
2014,06,23,08,21,18.10
2014,06,23,08,22,18.20
2014,06,23,08,23,18.20
2014,06,23,08,24,18.20
2014,06,23,08,25,18.20
2014,06,23,08,26,18.20
2014,06,23,08,27,18.20
2014,06,23,08,28,18.20
2014,06,23,08,29,18.20
2014,06,23,08,30,18.20
2014,06,23,08,31,18.20
2014,06,23,08,32,18.20
2014,06,23,08,33,18.20
2014,06,23,08,34,18.20
2014,06,23,08,35,18.20
2014,06,23,08,36,18.20
2014,06,23,08,37,18.20
2014,06,23,08,38,18.20
2014,06,23,08,39,18.10
2014,06,23,08,40,18.10
2014,06,23,08,41,18.00
2014,06,23,08,42,18.00
2014,06,23,08,43,18.00
2014,06,23,08,44,18.00
2014,06,23,08,45,18.10
2014,06,23,08,46,18.10
2014,06,23,08,47,18.10
2014,06,23,08,48,18.20
2014,06,23,08,49,18.20
2014,06,23,08,50,18.30
2014,06,23,08,51,18.30
2014,06,23,08,52,18.30
2014,06,23,08,53,18.40
2014,06,23,08,54,18.40
2014,06,23,08,55,18.50
2014,06,23,08,56,18.50
2014,06,23,08,57,18.60
2014,06,23,08,58,18.60
2014,06,23,08,59,18.70
2014,06,23,09,00,18.70
2014,06,23,09,01,18.80
2014,06,23,09,02,18.90
2014,06,23,09,03,19.00
2014,06,23,09,04,19.10
2014,06,23,09,05,19.20
2014,06,23,09,06,19.30
2014,06,23,09,07,19.40
2014,06,23,09,08,19.50
2014,06,23,09,09,19.60
2014,06,23,09,10,19.70
2014,06,23,09,11,19.70
2014,06,23,09,12,19.80
2014,06,23,09,13,19.80
2014,06,23,09,14,19.90
2014,06,23,09,15,19.90
2014,06,23,09,16,20.00
2014,06,23,09,17,20.10
2014,06,23,09,18,20.10
2014,06,23,09,19,20.10
2014,06,23,09,20,20.10
2014,06,23,09,21,20.00
2014,06,23,09,22,20.00
2014,06,23,09,23,20.00
2014,06,23,09,24,20.00
2014,06,23,09,25,20.10
2014,06,23,09,26,20.10
2014,06,23,09,27,20.10
2014,06,23,09,28,20.10
2014,06,23,09,29,20.10
2014,06,23,09,30,20.10
2014,06,23,09,31,20.20
2014,06,23,09,32,20.20
2014,06,23,09,33,20.20
2014,06,23,09,34,20.30
2014,06,23,09,35,20.20
2014,06,23,09,36,20.20
2014,06,23,09,37,20.10
2014,06,23,09,38,20.00
2014,06,23,09,39,20.00
2014,06,23,09,40,20.00
2014,06,23,09,41,19.90
2014,06,23,09,42,19.90
2014,06,23,09,43,19.90
2014,06,23,09,44,19.90
2014,06,23,09,45,19.90
2014,06,23,09,46,19.80
2014,06,23,09,47,19.80
2014,06,23,09,48,19.70
2014,06,23,09,49,19.60
2014,06,23,09,50,19.50
2014,06,23,09,51,19.50
2014,06,23,09,52,19.50
2014,06,23,09,53,19.50
2014,06,23,09,54,19.60
2014,06,23,09,55,19.60
2014,06,23,09,56,19.60
2014,06,23,09,57,19.60
2014,06,23,09,58,19.60
2014,06,23,09,59,19.70
2014,06,23,10,00,19.70
2014,06,23,10,01,19.70
2014,06,23,10,02,19.80
2014,06,23,10,03,19.80
2014,06,23,10,04,19.90
2014,06,23,10,05,20.00
2014,06,23,10,06,20.00
2014,06,23,10,07,20.00
2014,06,23,10,08,20.00
2014,06,23,10,09,20.10
2014,06,23,10,10,20.10
2014,06,23,10,11,20.10
2014,06,23,10,12,20.10
2014,06,23,10,13,20.10
2014,06,23,10,14,20.20
2014,06,23,10,15,20.20
2014,06,23,10,16,20.30
2014,06,23,10,17,20.30
2014,06,23,10,18,20.30
2014,06,23,10,19,20.30
2014,06,23,10,20,20.40
2014,06,23,10,21,20.50
2014,06,23,10,22,20.60
2014,06,23,10,23,20.60
2014,06,23,10,24,20.80
2014,06,23,10,25,20.80
2014,06,23,10,26,20.90
2014,06,23,10,27,20.90
2014,06,23,10,28,21.00
2014,06,23,10,29,21.10
2014,06,23,10,30,21.10
2014,06,23,10,31,21.10
2014,06,23,10,32,21.10
2014,06,23,10,33,21.20
2014,06,23,10,34,21.10
2014,06,23,10,35,21.10
2014,06,23,10,36,21.10
2014,06,23,10,37,21.20
2014,06,23,10,38,21.20
2014,06,23,10,39,21.20
2014,06,23,10,40,21.20
2014,06,23,10,41,21.20
2014,06,23,10,42,21.20
2014,06,23,10,43,21.20
2014,06,23,10,44,21.30
2014,06,23,10,45,21.30
2014,06,23,10,46,21.20
2014,06,23,10,47,21.00
2014,06,23,10,48,20.90
2014,06,23,10,49,20.90
2014,06,23,10,50,21.00
2014,06,23,10,51,21.00
2014,06,23,10,52,21.00
2014,06,23,10,53,21.00
2014,06,23,10,54,21.00
2014,06,23,10,55,20.90
2014,06,23,10,56,20.90
2014,06,23,10,57,21.00
2014,06,23,10,58,21.00
2014,06,23,10,59,21.10
2014,06,23,11,00,21.10
2014,06,23,11,01,21.20
2014,06,23,11,02,21.20
2014,06,23,11,03,21.20
2014,06,23,11,04,21.10
2014,06,23,11,05,21.10
2014,06,23,11,06,21.10
2014,06,23,11,07,21.10
2014,06,23,11,08,21.20
2014,06,23,11,09,21.20
2014,06,23,11,10,21.20
2014,06,23,11,11,21.10
2014,06,23,11,12,20.90
2014,06,23,11,13,20.80
2014,06,23,11,14,20.80
2014,06,23,11,15,20.80
2014,06,23,11,16,20.70
2014,06,23,11,17,20.70
2014,06,23,11,18,20.80
2014,06,23,11,19,20.80
2014,06,23,11,20,20.80
2014,06,23,11,21,20.70
2014,06,23,11,22,20.60
2014,06,23,11,23,20.60
2014,06,23,11,24,20.50
2014,06,23,11,25,20.40
2014,06,23,11,26,20.40
2014,06,23,11,27,20.40
2014,06,23,11,28,20.50
2014,06,23,11,29,20.60
2014,06,23,11,30,20.70
2014,06,23,11,31,20.80
2014,06,23,11,32,21.00
2014,06,23,11,33,21.10
2014,06,23,11,34,21.30
2014,06,23,11,35,21.50
2014,06,23,11,36,21.60
2014,06,23,11,37,21.60
2014,06,23,11,38,21.60
2014,06,23,11,39,21.70
2014,06,23,11,40,21.70
2014,06,23,11,41,21.60
2014,06,23,11,42,21.60
2014,06,23,11,43,21.50
2014,06,23,11,44,21.40
2014,06,23,11,45,21.50
2014,06,23,11,46,21.50
2014,06,23,11,47,21.60
2014,06,23,11,48,21.60
2014,06,23,11,49,21.60
2014,06,23,11,50,21.50
2014,06,23,11,51,21.50
2014,06,23,11,52,21.40
2014,06,23,11,53,21.40
2014,06,23,11,54,21.40
2014,06,23,11,55,21.40
2014,06,23,11,56,21.30
2014,06,23,11,57,21.20
2014,06,23,11,58,21.20
2014,06,23,11,59,21.20
2014,06,23,12,00,21.20
2014,06,23,12,01,21.30
2014,06,23,12,02,21.30
2014,06,23,12,03,21.30
2014,06,23,12,04,21.40
2014,06,23,12,05,21.50
2014,06,23,12,06,21.60
2014,06,23,12,07,21.70
2014,06,23,12,08,21.80
2014,06,23,12,09,21.80
2014,06,23,12,10,21.80
2014,06,23,12,11,21.90
2014,06,23,12,12,22.00
2014,06,23,12,13,22.10
2014,06,23,12,14,22.00
2014,06,23,12,15,22.00
2014,06,23,12,16,22.00
2014,06,23,12,17,22.00
2014,06,23,12,18,22.00
2014,06,23,12,19,21.90
2014,06,23,12,20,21.80
2014,06,23,12,21,21.70
2014,06,23,12,22,21.70
2014,06,23,12,23,21.70
2014,06,23,12,24,21.80
2014,06,23,12,25,21.80
2014,06,23,12,26,21.90
2014,06,23,12,27,22.00
2014,06,23,12,28,22.10
2014,06,23,12,29,22.20
2014,06,23,12,30,22.30
2014,06,23,12,31,22.40
2014,06,23,12,32,22.40
2014,06,23,12,33,22.30
2014,06,23,12,34,22.10
2014,06,23,12,35,22.00
2014,06,23,12,36,21.80
2014,06,23,12,37,21.60
2014,06,23,12,38,21.50
2014,06,23,12,39,21.30
2014,06,23,12,40,21.20
2014,06,23,12,41,21.00
2014,06,23,12,42,20.90
2014,06,23,12,43,20.80
2014,06,23,12,44,20.80
2014,06,23,12,45,20.80
2014,06,23,12,46,20.70
2014,06,23,12,47,20.70
2014,06,23,12,48,20.60
2014,06,23,12,49,20.60
2014,06,23,12,50,20.60
2014,06,23,12,51,20.50
2014,06,23,12,52,20.40
2014,06,23,12,53,20.40
2014,06,23,12,54,20.40
2014,06,23,12,55,20.40
2014,06,23,12,56,20.40
2014,06,23,12,57,20.40
2014,06,23,12,58,20.30
2014,06,23,12,59,20.30
2014,06,23,13,00,20.30
2014,06,23,13,01,20.30
2014,06,23,13,02,20.30
2014,06,23,13,03,20.30
2014,06,23,13,04,20.30
2014,06,23,13,05,20.20
2014,06,23,13,06,20.20
2014,06,23,13,07,20.20
2014,06,23,13,08,20.20
2014,06,23,13,09,20.20
2014,06,23,13,10,20.20
2014,06,23,13,11,20.20
2014,06,23,13,12,20.20
2014,06,23,13,13,20.20
2014,06,23,13,14,20.20
2014,06,23,13,15,20.10
2014,06,23,13,16,20.10
2014,06,23,13,17,20.10
2014,06,23,13,18,20.10
2014,06,23,13,19,20.10
2014,06,23,13,20,20.10
2014,06,23,13,21,20.10
2014,06,23,13,22,20.10
2014,06,23,13,23,20.10
2014,06,23,13,24,20.10
2014,06,23,13,25,20.10
2014,06,23,13,26,20.10
2014,06,23,13,27,20.10
2014,06,23,13,28,20.10
2014,06,23,13,29,20.10
2014,06,23,13,30,20.20
2014,06,23,13,31,20.20
2014,06,23,13,32,20.20
2014,06,23,13,33,20.20
2014,06,23,13,34,20.20
2014,06,23,13,35,20.20
2014,06,23,13,36,20.20
2014,06,23,13,37,20.30
2014,06,23,13,38,20.30
2014,06,23,13,39,20.30
2014,06,23,13,40,20.30
2014,06,23,13,41,20.30
2014,06,23,13,42,20.40
2014,06,23,13,43,20.40
2014,06,23,13,44,20.40
2014,06,23,13,45,20.50
2014,06,23,13,46,20.50
2014,06,23,13,47,20.60
2014,06,23,13,48,20.60
2014,06,23,13,49,20.60
2014,06,23,13,50,20.50
2014,06,23,13,51,20.50
2014,06,23,13,52,20.40
2014,06,23,13,53,20.40
2014,06,23,13,54,20.40
2014,06,23,13,55,20.40
2014,06,23,13,56,20.40
2014,06,23,13,57,20.30
2014,06,23,13,58,20.30
2014,06,23,13,59,20.20
2014,06,23,14,00,20.10
2014,06,23,14,01,20.10
2014,06,23,14,02,20.10
2014,06,23,14,03,20.10
2014,06,23,14,04,20.10
2014,06,23,14,05,20.10
2014,06,23,14,06,20.00
2014,06,23,14,07,20.00
2014,06,23,14,08,20.00
2014,06,23,14,09,20.00
2014,06,23,14,10,20.00
2014,06,23,14,11,19.90
2014,06,23,14,12,19.90
2014,06,23,14,13,19.90
2014,06,23,14,14,19.90
2014,06,23,14,15,19.80
2014,06,23,14,16,19.80
2014,06,23,14,17,19.80
2014,06,23,14,18,19.80
2014,06,23,14,19,19.80
2014,06,23,14,20,19.80
2014,06,23,14,21,19.80
2014,06,23,14,22,19.80
2014,06,23,14,23,19.80
2014,06,23,14,24,19.90
2014,06,23,14,25,19.90
2014,06,23,14,26,20.00
2014,06,23,14,27,20.00
2014,06,23,14,28,20.00
2014,06,23,14,29,20.00
2014,06,23,14,30,20.10
2014,06,23,14,31,20.10
2014,06,23,14,32,20.10
2014,06,23,14,33,20.20
2014,06,23,14,34,20.20
2014,06,23,14,35,20.20
2014,06,23,14,36,20.30
2014,06,23,14,37,20.30
2014,06,23,14,38,20.40
2014,06,23,14,39,20.30
2014,06,23,14,40,20.30
2014,06,23,14,41,20.30
2014,06,23,14,42,20.30
2014,06,23,14,43,20.30
2014,06,23,14,44,20.30
2014,06,23,14,45,20.30
2014,06,23,14,46,20.20
2014,06,23,14,47,20.20
2014,06,23,14,48,20.10
2014,06,23,14,49,20.10
2014,06,23,14,50,20.10
2014,06,23,14,51,20.20
2014,06,23,14,52,20.10
2014,06,23,14,53,20.10
2014,06,23,14,54,20.10
2014,06,23,14,55,20.10
2014,06,23,14,56,20.10
2014,06,23,14,57,20.10
2014,06,23,14,58,20.00
2014,06,23,14,59,19.90
2014,06,23,15,00,19.80
2014,06,23,15,01,19.70
2014,06,23,15,02,19.70
2014,06,23,15,03,19.70
2014,06,23,15,04,19.70
2014,06,23,15,05,19.70
2014,06,23,15,06,19.70
2014,06,23,15,07,19.60
2014,06,23,15,08,19.60
2014,06,23,15,09,19.60
2014,06,23,15,10,19.60
2014,06,23,15,11,19.50
2014,06,23,15,12,19.40
2014,06,23,15,13,19.40
2014,06,23,15,14,19.30
2014,06,23,15,15,19.30
2014,06,23,15,16,19.40
2014,06,23,15,17,19.40
2014,06,23,15,18,19.40
2014,06,23,15,19,19.40
2014,06,23,15,20,19.40
2014,06,23,15,21,19.40
2014,06,23,15,22,19.40
2014,06,23,15,23,19.40
2014,06,23,15,24,19.30
2014,06,23,15,25,19.30
2014,06,23,15,26,19.30
2014,06,23,15,27,19.30
2014,06,23,15,28,19.30
2014,06,23,15,29,19.30
2014,06,23,15,30,19.30
2014,06,23,15,31,19.30
2014,06,23,15,32,19.30
2014,06,23,15,33,19.30
2014,06,23,15,34,19.30
2014,06,23,15,35,19.30
2014,06,23,15,36,19.30
2014,06,23,15,37,19.30
2014,06,23,15,38,19.30
2014,06,23,15,39,19.30
2014,06,23,15,40,19.30
2014,06,23,15,41,19.30
2014,06,23,15,42,19.30
2014,06,23,15,43,19.30
2014,06,23,15,44,19.30
2014,06,23,15,45,19.30
2014,06,23,15,46,19.30
2014,06,23,15,47,19.30
2014,06,23,15,48,19.30
2014,06,23,15,49,19.30
2014,06,23,15,50,19.20
2014,06,23,15,51,19.20
2014,06,23,15,52,19.20
2014,06,23,15,53,19.10
2014,06,23,15,54,19.10
2014,06,23,15,55,19.10
2014,06,23,15,56,19.10
2014,06,23,15,57,19.10
2014,06,23,15,58,19.10
2014,06,23,15,59,19.10
2014,06,23,16,00,19.10
2014,06,23,16,01,19.10
2014,06,23,16,02,19.10
2014,06,23,16,03,19.10
2014,06,23,16,04,19.10
2014,06,23,16,05,19.10
2014,06,23,16,06,19.10
2014,06,23,16,07,19.10
2014,06,23,16,08,19.20
2014,06,23,16,09,19.10
2014,06,23,16,10,19.10
2014,06,23,16,11,19.10
2014,06,23,16,12,19.10
2014,06,23,16,13,19.10
2014,06,23,16,14,19.10
2014,06,23,16,15,19.10
2014,06,23,16,16,19.10
2014,06,23,16,17,19.10
2014,06,23,16,18,19.10
2014,06,23,16,19,19.20
2014,06,23,16,20,19.20
2014,06,23,16,21,19.20
2014,06,23,16,22,19.20
2014,06,23,16,23,19.30
2014,06,23,16,24,19.30
2014,06,23,16,25,19.30
2014,06,23,16,26,19.40
2014,06,23,16,27,19.40
2014,06,23,16,28,19.40
2014,06,23,16,29,19.40
2014,06,23,16,30,19.40
2014,06,23,16,31,19.50
2014,06,23,16,32,19.50
2014,06,23,16,33,19.60
2014,06,23,16,34,19.60
2014,06,23,16,35,19.60
2014,06,23,16,36,19.60
2014,06,23,16,37,19.60
2014,06,23,16,38,19.60
2014,06,23,16,39,19.60
2014,06,23,16,40,19.60
2014,06,23,16,41,19.60
2014,06,23,16,42,19.60
2014,06,23,16,43,19.60
2014,06,23,16,44,19.60
2014,06,23,16,45,19.70
2014,06,23,16,46,19.70
2014,06,23,16,47,19.70
2014,06,23,16,48,19.70
2014,06,23,16,49,19.70
2014,06,23,16,50,19.80
2014,06,23,16,51,19.80
2014,06,23,16,52,19.80
2014,06,23,16,53,19.80
2014,06,23,16,54,19.80
2014,06,23,16,55,19.80
2014,06,23,16,56,19.70
2014,06,23,16,57,19.70
2014,06,23,16,58,19.70
2014,06,23,16,59,19.70
2014,06,23,17,00,19.70
2014,06,23,17,01,19.70
2014,06,23,17,02,19.70
2014,06,23,17,03,19.70
2014,06,23,17,04,19.70
2014,06,23,17,05,19.70
2014,06,23,17,06,19.70
2014,06,23,17,07,19.70
2014,06,23,17,08,19.70
2014,06,23,17,09,19.70
2014,06,23,17,10,19.80
2014,06,23,17,11,19.80
2014,06,23,17,12,19.80
2014,06,23,17,13,19.80
2014,06,23,17,14,19.80
2014,06,23,17,15,19.70
2014,06,23,17,16,19.70
2014,06,23,17,17,19.70
2014,06,23,17,18,19.70
2014,06,23,17,19,19.70
2014,06,23,17,20,19.70
2014,06,23,17,21,19.60